Lapse_Rate
7.4 7.4 7.5 7.5 7.4 7.2 6.5 6.5 6.4 6.3 5.9 5.8 5.7 5.6 5.4 5.4 5.2 4.5 5.0 5.1 5.0 4.9 4.9 4.8 4.8 4.9 4.7 4.8 4.9 4.6 4.6 4.4 4.4 4.9 4.9 4.8 5.0 4.7 4.3 4.1 4.1 4.5 4.5 4.5 4.7 5.1 5.1 5.3 5.4
7.4 7.5 7.5 7.5 7.5 7.8 6.4 6.5 6.3 6.2 6.0 5.8 5.6 5.4 5.4 5.6 5.3 5.1 5.1 5.1 5.0 4.9 4.7 4.5 4.3 4.4 4.5 4.7 4.7 4.7 4.8 4.9 4.9 4.7 4.9 4.9 4.9 4.7 4.5 4.3 4.2 4.3 4.3 4.2 4.4 4.5 4.7 5.0 5.2
7.5 7.6 7.5 7.4 7.4 7.7 6.4 6.2 6.1 5.8 5.7 5.5 5.4 5.2 5.2 5.4 5.4 5.4 5.3 5.2 4.9 4.7 4.7 4.5 4.3 4.2 4.3 4.3 4.4 4.6 4.8 5.0 5.1 5.2 5.1 5.1 5.1 5.3 5.2 4.8 4.5 4.3 4.4 4.4 4.6 4.5 4.5 4.5 4.9
7.5 7.5 7.3 7.1 6.7 6.8 6.5 6.2 5.8 5.3 5.2 5.1 4.9 5.0 5.1 5.4 5.2 5.2 5.0 4.9 4.7 4.6 4.4 4.4 4.4 4.5 4.4 4.3 4.5 4.7 4.9 5.0 5.1 5.3 5.4 5.5 5.6 5.4 5.3 5.5 5.5 5.0 4.6 4.5 4.6 4.7 4.7 4.6 4.5
7.3 7.2 6.9 6.7 6.7 6.5 6.1 6.0 5.6 5.2 5.1 5.4 5.4 5.4 5.2 5.1 5.1 5.0 4.7 4.5 4.5 4.2 4.0 3.9 4.0 4.1 4.3 4.4 4.7 4.8 4.8 4.8 5.0 5.2 5.3 5.4 5.7 5.9 5.9 5.8 5.6 6.0 5.6 5.0 4.6 4.6 4.8 4.9 4.7
6.9 6.9 6.8 6.6 6.4 6.3 6.1 5.8 5.6 5.4 5.4 5.5 5.3 5.1 5.0 5.0 4.9 4.6 4.5 4.3 4.1 3.9 4.0 4.1 4.2 4.4 4.6 4.8 4.9 4.9 5.0 5.0 5.1 4.9 4.8 5.0 5.2 5.2 5.6 5.9 6.1 5.8 5.7 5.6 4.8 4.7 4.5 4.7 5.0
6.8 6.8 6.6 6.4 6.5 6.2 6.0 5.7 5.6 5.6 5.6 5.5 5.2 5.0 4.9 5.1 4.9 4.5 4.1 4.0 3.9 3.8 3.9 4.0 4.1 4.2 4.6 4.7 4.5 4.5 4.4 4.3 4.3 4.3 4.4 4.6 4.4 4.6 4.9 5.0 5.0 5.0 5.3 5.4 5.3 5.1 4.8 4.6 4.7
6.5 6.5 6.6 6.5 6.2 6.1 5.7 5.6 5.6 5.5 5.4 5.3 5.3 5.3 4.8 4.6 4.4 4.4 4.2 3.9 3.8 4.0 4.0 4.0 4.0 4.2 4.1 3.9 4.0 4.2 4.2 4.3 4.4 4.4 4.4 4.5 4.6 4.6 4.4 4.4 4.4 4.6 4.6 4.8 5.0 5.2 5.1 4.9 4.7
6.5 6.2 6.0 6.3 5.7 5.9 5.7 5.6 5.5 5.3 5.3 5.3 5.1 4.8 4.6 4.5 4.5 3.9 3.7 3.9 3.9 3.9 3.9 4.1 4.0 4.1 4.4 4.6 4.8 4.8 4.9 5.0 4.8 4.5 4.5 4.7 4.7 4.8 4.8 4.6 4.4 4.3 4.3 4.3 4.4 4.6 5.0 5.1 5.1
6.3 6.1 6.1 6.0 5.8 5.7 5.4 5.3 5.2 5.1 5.1 5.0 4.7 4.5 4.2 3.9 3.5 3.4 3.5 3.6 3.9 4.2 4.4 4.4 4.4 4.7 4.9 5.0 5.1 5.2 5.1 5.2 5.0 4.7 5.0 5.4 5.8 6.0 5.9 5.4 5.1 4.7 4.4 4.4 4.4 4.3 4.4 4.6 4.7
6.3 6.1 6.0 5.9 5.7 5.5 5.3 5.3 5.3 5.0 5.0 4.7 4.3 4.1 3.9 3.8 3.4 3.4 3.7 3.9 3.9 3.8 4.0 4.4 4.7 4.9 5.2 5.5 5.7 5.8 5.8 5.8 5.9 5.8 5.5 5.5 5.6 5.8 6.3 6.5 6.4 6.1 5.7 5.1 4.9 4.6 4.5 4.5 4.5
6.2 6.1 6.0 5.8 5.6 5.4 5.1 5.0 5.0 5.0 4.8 4.5 4.1 3.7 3.7 3.3 3.6 3.6 3.7 4.0 4.0 4.4 4.8 5.0 5.4 6.0 6.4 6.9 7.0 6.8 6.4 6.1 6.2 6.1 5.7 5.7 5.6 5.5 5.8 6.1 6.1 6.1 6.1 6.1 6.0 5.4 5.2 5.1 4.9
6.2 6.0 5.9 5.6 5.4 5.2 5.0 5.1 4.9 4.7 4.3 3.8 3.5 3.6 3.4 3.6 3.5 3.9 4.3 4.6 5.2 5.8 6.3 6.6 6.7 6.9 6.9 7.0 6.9 6.6 6.4 6.4 6.3 6.3 6.1 6.1 5.9 5.7 5.6 5.5 5.6 5.6 5.7 5.7 5.8 5.7 5.7 5.6 5.5
5.9 5.8 5.6 5.5 5.3 4.9 4.8 4.7 4.6 4.3 3.8 3.6 3.4 3.5 3.5 3.5 3.9 4.4 4.9 5.6 6.0 6.3 6.5 6.7 6.8 6.9 6.9 6.8 6.5 6.4 6.2 6.1 6.1 6.0 5.9 5.8 5.7 5.9 5.8 5.5 5.3 5.2 5.3 5.3 5.3 5.4 5.2 5.2 5.4
5.9 5.5 5.3 5.3 4.9 4.7 4.4 4.3 4.2 3.8 3.6 3.5 3.3 3.4 3.7 3.9 4.5 5.1 5.7 5.9 6.2 6.3 6.5 6.8 7.0 6.9 6.7 6.5 6.2 6.0 5.8 5.7 5.5 5.3 5.3 5.2 5.2 5.3 5.5 5.5 5.4 5.1 5.0 5.1 5.2 5.1 5.1 5.2 5.3
5.6 5.3 4.7 5.0 4.7 4.6 4.1 3.5 4.1 3.7 3.5 3.4 3.5 3.7 4.1 4.6 5.2 5.7 5.9 6.1 6.1 6.5 6.8 6.8 6.7 6.7 6.5 6.3 6.1 5.9 5.6 5.3 5.0 4.6 4.6 4.7 4.7 4.9 5.1 5.2 5.1 5.2 5.0 5.0 5.1 5.1 5.2 5.2 5.3
5.5 5.6 4.6 4.8 4.5 4.3 4.2 3.9 4.1 3.7 3.5 3.7 3.7 4.1 4.7 5.1 5.8 5.9 6.0 6.1 6.5 6.6 6.6 6.7 6.8 6.9 6.8 6.5 6.2 6.0 5.6 5.3 5.0 4.8 4.9 5.0 5.1 4.9 4.9 4.9 5.0 4.8 4.9 4.9 4.8 4.9 5.1 5.2 5.2
5.5 5.2 4.8 4.1 4.5 4.3 4.2 4.0 3.9 3.8 3.8 3.8 3.9 4.7 5.3 5.6 5.7 5.9 6.0 6.5 6.4 6.4 6.5 6.6 6.6 6.7 6.7 6.6 6.5 6.1 5.8 5.5 5.2 5.0 5.0 5.0 5.2 5.3 5.3 5.2 5.0 4.6 4.4 4.5 4.6 4.8 4.8 5.1 5.3
5.8 5.5 4.9 5.0 4.5 4.1 4.2 4.0 3.9 3.7 3.8 3.8 4.1 5.3 5.3 5.9 5.8 5.8 6.2 6.3 6.4 6.4 6.5 6.5 6.5 6.6 6.6 6.5 6.5 6.3 6.1 5.9 5.5 5.2 4.7 4.7 4.8 5.0 5.1 5.1 5.0 4.6 4.4 4.5 4.2 4.5 4.8 5.0 5.1
5.7 5.1 4.6 4.7 4.6 4.2 4.1 3.8 3.7 3.8 3.8 4.0 4.0 4.9 5.9 6.3 6.0 6.1 6.3 6.4 6.4 6.4 6.4 6.4 6.4 6.3 6.3 6.2 6.1 6.0 5.9 5.7 5.6 5.5 5.2 5.0 4.9 4.6 4.6 4.8 5.0 5.1 5.1 4.9 4.8 4.8 4.9 5.1 5.1
5.6 5.1 4.6 4.4 4.6 4.6 4.1 3.0 3.9 3.6 4.1 3.9 4.5 5.2 5.7 5.6 5.9 6.2 6.4 6.4 6.2 6.2 6.2 6.1 6.2 6.2 6.1 6.3 6.1 6.0 5.9 5.8 5.8 5.8 5.7 5.5 5.3 5.0 4.9 4.9 5.0 5.2 5.3 5.4 5.3 5.1 5.1 5.3 5.3
5.3 5.4 5.2 5.0 4.5 5.0 4.3 5.7 3.6 3.9 4.0 4.1 4.7 5.4 5.7 5.8 5.8 6.1 6.2 6.1 6.2 6.0 5.9 5.9 6.1 6.2 6.3 6.1 6.0 5.6 5.3 5.4 5.5 5.6 5.8 5.8 5.3 5.1 5.1 5.2 5.0 5.3 5.6 5.8 5.8 5.5 5.5 5.5 5.6
5.6 5.4 5.0 4.8 4.1 3.9 3.7 4.0 3.7 4.4 4.4 4.7 5.0 5.4 5.5 5.6 5.7 6.1 6.1 6.1 5.9 5.8 5.9 6.0 6.1 6.0 6.0 5.9 5.8 5.7 5.6 5.7 5.6 6.0 6.2 6.5 6.7 6.3 5.9 5.7 5.3 5.3 5.5 5.6 5.6 5.2 4.9 5.1 5.2
5.7 5.3 4.8 4.7 3.9 5.5 3.9 4.3 4.5 4.2 4.3 4.4 4.8 5.4 5.5 5.6 5.8 6.0 6.0 5.9 5.8 5.7 5.8 6.0 6.1 6.2 6.0 6.0 6.1 6.0 5.9 5.9 6.1 6.4 6.6 6.7 6.8 6.8 6.4 6.2 6.0 5.5 5.4 5.5 5.5 5.5 5.5 5.3 5.3
5.6 5.2 6.3 6.5 6.3 6.8 4.3 3.8 4.4 4.6 4.2 3.9 4.6 5.2 5.4 5.5 5.9 6.3 6.1 5.9 5.8 5.8 5.8 6.0 6.2 6.2 6.1 6.3 6.2 6.3 6.2 6.2 6.3 6.3 6.3 6.3 6.5 6.6 6.6 6.4 6.2 5.9 5.7 5.8 5.9 5.9 6.1 5.6 5.6
5.7 5.6 5.9 6.3 6.8 6.3 4.4 5.0 4.2 4.6 4.0 3.6 4.1 4.7 4.9 5.3 5.9 6.3 6.1 5.8 5.8 5.8 5.8 6.1 6.2 6.2 6.3 6.3 6.5 6.4 6.4 6.4 6.4 6.3 6.2 6.3 6.5 6.5 6.5 6.4 6.3 6.4 6.1 6.0 6.0 6.1 6.0 6.0 6.0
5.5 5.0 5.2 4.2 4.4 4.3 5.2 4.5 4.4 4.4 3.8 3.5 4.6 5.0 5.2 5.5 6.0 6.2 6.0 5.7 5.8 5.7 5.9 6.2 6.3 6.2 6.3 6.5 6.6 6.5 6.5 6.5 6.5 6.5 6.4 6.5 6.5 6.3 6.3 6.4 6.4 6.8 6.4 6.4 6.4 6.4 6.3 6.4 6.3
5.3 5.2 4.7 4.8 5.3 6.0 6.4 4.7 5.0 4.2 4.0 3.8 4.6 5.3 5.4 5.7 5.9 5.9 5.8 5.7 5.7 5.7 5.9 6.1 6.2 6.2 6.3 6.5 6.6 6.7 6.5 6.6 6.5 6.7 6.4 6.4 6.3 6.1 6.0 6.3 6.6 6.8 6.6 6.8 6.8 6.8 6.7 6.6 6.3
5.1 5.2 5.0 4.8 4.7 5.6 5.8 6.1 4.6 4.2 4.0 3.7 4.5 5.1 5.4 5.7 6.0 5.9 5.7 5.7 5.8 5.8 5.9 6.1 6.1 6.2 6.4 6.7 6.7 6.7 6.7 6.6 6.6 6.6 6.4 6.3 6.1 6.0 5.9 6.5 6.8 6.9 6.7 7.0 6.9 6.8 6.5 6.3 6.2
5.2 5.2 5.0 4.7 4.4 4.0 3.6 4.8 4.5 4.2 3.8 3.8 3.7 5.0 5.0 5.4 5.9 5.9 5.7 5.7 5.8 5.8 5.9 6.0 6.0 6.2 6.4 6.7 6.8 6.8 6.7 6.7 6.6 6.6 6.5 6.3 6.1 5.8 5.8 6.2 6.7 6.8 6.9 6.8 6.6 6.6 6.4 6.3 6.3
Wind_Speed
3 1 1 3 4 1 3 4 2 3 3 7 10 12 15 11 7 3 2 12 14 15 18 20 23 24 24 25 25 24 24 24 24 23 21 21 20 20 19 19 18 18 20 17 16 15 15 15 12
0 2 2 1 5 6 5 4 5 5 8 5 6 2 7 7 9 5 7 14 16 17 19 20 25 26 26 26 26 25 24 24 24 24 22 22 20 19 20 18 18 18 19 19 17 15 14 13 13
1 1 2 1 1 4 2 4 6 9 6 3 4 8 5 5 9 6 12 14 16 17 18 19 24 25 26 26 26 25 25 25 24 23 22 21 22 20 19 20 18 18 18 18 19 17 15 12 12
2 2 2 2 6 6 5 5 5 5 7 6 5 8 8 10 5 9 11 14 16 18 20 20 24 24 25 26 26 27 27 26 26 25 24 23 23 22 21 19 17 18 19 19 18 17 16 14 12
1 2 2 4 7 7 9 9 4 4 5 9 0 6 7 9 8 10 13 17 15 19 21 21 22 23 25 26 27 29 29 28 25 26 26 25 24 24 23 22 22 18 19 20 21 17 17 15 15
2 2 5 5 8 9 8 7 11 10 7 6 7 5 6 8 14 14 15 15 17 18 19 20 21 23 25 26 27 26 26 24 25 26 25 24 24 23 23 23 21 21 21 20 21 19 18 16 15
2 2 3 6 10 7 6 5 8 8 7 11 3 3 4 14 15 15 14 16 17 19 20 23 22 24 25 25 26 25 28 27 28 27 25 24 24 22 22 21 23 24 24 23 21 18 19 18 17
1 2 5 3 10 5 6 5 8 8 10 3 7 5 6 15 15 14 14 14 17 20 21 22 23 24 25 25 24 26 24 24 25 25 24 23 24 23 20 20 23 22 25 24 22 20 17 18 18
2 1 3 3 6 8 12 6 8 9 14 16 9 10 9 11 12 14 14 16 15 15 19 20 22 22 23 23 22 23 22 22 22 21 22 23 19 19 20 20 22 21 22 23 22 22 18 20 19
5 2 4 3 6 13 9 9 10 6 9 10 9 10 11 12 13 15 16 16 18 19 19 21 21 22 23 21 22 20 21 22 22 21 20 19 20 19 20 22 20 20 21 20 21 20 20 20 17
6 4 7 7 14 14 14 13 5 7 9 9 10 12 13 14 14 16 17 18 18 18 15 19 20 23 22 21 21 20 21 21 21 21 22 20 20 16 16 15 15 14 14 16 16 16 15 15 14
8 7 7 10 13 12 11 11 17 13 6 5 6 9 11 15 17 17 17 18 18 18 18 18 22 20 22 20 20 20 18 18 16 20 21 17 14 16 15 13 14 14 14 13 14 12 13 14 16
15 11 11 12 14 15 16 14 13 11 6 5 5 9 14 16 17 16 17 17 17 18 18 18 22 20 22 18 19 19 19 18 20 18 18 17 15 10 15 15 15 14 14 14 10 10 9 10 13
11 18 17 14 14 11 13 9 3 8 4 5 9 13 14 16 17 16 17 18 18 18 18 18 19 21 24 18 21 19 19 20 19 19 18 20 17 14 13 10 12 15 15 14 12 8 9 9 10
18 14 13 12 7 13 11 10 7 5 4 7 11 13 14 15 17 17 17 18 19 17 18 18 19 22 22 22 20 19 20 21 19 19 19 20 19 18 16 8 9 11 15 17 14 11 10 9 10
4 7 6 7 8 8 5 4 5 5 5 9 12 13 14 18 18 17 17 18 18 19 17 19 20 21 21 20 20 18 19 20 19 20 20 19 21 20 16 9 9 13 12 9 9 10 9 9 9
6 2 2 6 7 3 6 6 5 3 6 10 13 15 16 17 17 17 18 17 17 17 18 18 19 18 18 20 19 19 20 16 19 20 19 21 21 20 16 9 10 15 7 8 7 8 10 9 9
2 2 2 2 5 5 5 8 7 3 8 11 14 16 16 17 18 18 18 17 17 16 17 18 16 18 19 17 17 17 14 14 15 16 16 21 20 19 16 11 10 12 7 7 7 9 7 9 9
1 1 3 5 4 4 5 10 7 2 8 13 15 16 17 18 16 17 16 16 16 17 17 18 17 18 15 13 14 13 13 11 11 15 20 22 17 18 15 7 9 8 8 8 9 8 8 7 8
3 3 3 6 3 5 7 7 5 3 5 11 15 16 18 19 19 17 18 16 16 18 18 17 18 18 15 13 12 10 11 12 12 13 18 22 19 18 15 10 9 9 7 9 8 9 7 7 6
3 3 1 3 5 2 6 7 7 3 5 12 13 14 16 17 18 18 18 17 17 18 17 18 19 19 16 17 11 10 12 12 10 12 10 11 22 18 17 17 10 9 7 6 8 7 9 7 6
0 3 5 5 6 2 3 2 5 2 4 12 14 14 17 18 17 16 18 18 18 17 16 17 18 17 15 18 13 16 11 11 11 10 10 9 18 17 18 15 12 11 8 8 7 7 7 7 6
5 1 1 5 4 3 5 4 5 1 5 15 16 15 16 17 16 17 18 18 17 16 16 16 18 17 18 17 16 11 14 11 10 10 15 12 11 16 16 16 13 12 7 9 9 9 8 6 6
1 4 6 4 2 4 4 3 5 2 8 12 14 15 17 17 15 16 16 16 15 16 16 16 18 18 18 17 17 17 16 16 13 14 11 10 9 9 12 15 10 12 9 8 7 5 6 6 8
1 3 2 3 3 3 4 4 4 6 4 9 13 14 16 16 15 15 17 16 17 17 17 16 18 18 18 18 17 17 17 17 15 15 11 14 10 10 11 13 12 9 10 8 6 4 4 6 6
5 4 3 5 4 4 3 4 4 6 3 8 9 10 13 15 14 15 15 16 16 16 17 18 18 18 18 18 17 15 16 11 10 13 11 10 10 11 15 13 13 14 11 10 6 3 4 4 6
3 3 3 2 0 4 2 3 5 5 5 9 10 12 15 16 14 15 15 14 15 15 16 17 17 17 17 18 16 16 15 15 13 15 14 11 13 11 15 14 13 13 12 10 7 4 4 3 4
4 3 1 1 5 5 2 4 2 6 8 10 11 11 13 14 14 13 13 13 13 14 14 15 16 16 17 17 15 14 15 15 15 13 16 17 16 15 17 14 13 12 12 7 9 4 4 2 3
1 2 3 1 3 3 5 3 3 6 5 8 9 10 13 13 12 12 12 12 12 13 14 14 15 16 16 15 16 16 15 15 15 14 15 16 17 16 19 15 15 13 11 5 6 3 4 2 3
1 0 2 2 2 0 2 3 6 6 4 5 8 9 12 12 11 11 11 12 13 13 14 14 14 15 15 15 15 16 16 14 15 15 16 17 17 17 18 17 18 16 5 1 3 5 4 4 3
Wind_Direction
236 225 184 217 220 142 102 83 81 103 110 67 52 57 77 40 16 43 52 11 356 353 353 352 351 346 345 345 343 341 339 336 335 332 332 332 333 333 331 329 331 334 336 333 334 339 340 341 327
16 190 215 219 253 253 113 125 87 49 88 87 59 42 48 73 36 78 9 352 348 352 350 348 347 345 344 341 339 337 334 330 327 324 322 323 322 323 321 320 322 327 327 326 322 322 328 331 336
165 310 266 94 270 291 103 79 110 74 75 49 113 51 49 24 41 13 5 347 344 348 347 348 345 344 341 339 335 334 330 327 323 317 312 314 313 312 314 313 313 316 316 316 316 315 312 315 318
256 172 128 286 93 56 59 43 125 132 85 43 86 80 92 43 14 360 355 348 346 346 346 342 342 340 338 336 333 329 325 321 317 316 315 311 307 303 303 304 305 311 313 312 308 309 309 300 302
40 229 156 100 88 107 76 56 99 101 98 46 256 89 88 46 16 6 353 349 349 344 342 339 339 335 334 331 329 327 323 318 319 319 311 304 302 301 301 300 297 299 304 310 303 300 304 317 302
196 261 231 203 117 117 85 71 75 82 77 51 77 93 79 48 10 354 344 342 342 341 339 338 334 335 332 330 330 328 328 327 321 317 310 311 306 301 299 298 302 298 297 301 296 298 295 298 305
345 297 49 110 131 139 119 73 65 76 62 47 32 76 91 17 358 341 339 339 343 342 341 340 339 337 335 333 331 329 328 322 318 313 311 309 302 299 294 296 292 291 289 291 287 287 295 291 289
44 93 125 110 168 118 127 100 79 43 55 76 358 34 14 351 344 340 342 343 345 343 343 341 341 341 338 334 334 336 331 328 326 322 315 307 301 291 287 290 282 287 282 281 281 281 284 289 292
309 209 107 93 170 128 140 118 81 81 86 66 68 45 0 345 341 342 343 343 344 343 343 339 341 342 339 335 339 335 335 332 331 327 321 315 305 297 295 292 290 288 285 280 277 275 281 285 283
17 35 63 26 95 133 120 107 112 108 77 56 41 26 8 351 350 346 346 341 339 341 340 340 336 339 338 334 336 333 335 335 331 329 328 323 315 305 303 289 287 285 281 280 279 276 276 277 269
28 68 113 65 109 122 110 88 91 122 58 36 14 358 356 350 351 349 346 344 341 337 336 336 335 335 337 338 338 346 340 329 323 327 330 325 318 311 306 299 297 290 283 275 270 268 261 261 259
104 67 102 111 114 113 101 102 76 68 76 33 16 358 350 355 356 349 343 340 338 336 340 338 340 335 338 339 342 328 331 326 323 327 325 320 322 317 310 305 296 293 286 284 276 266 266 266 259
89 106 96 104 102 102 103 88 91 73 55 36 8 2 4 358 351 346 345 339 339 340 341 344 342 347 340 335 334 330 328 322 319 318 320 321 315 311 313 311 303 291 287 280 276 270 267 262 261
111 110 111 117 111 122 108 95 109 45 13 19 8 11 3 356 350 345 347 344 343 342 341 344 344 342 339 344 335 329 322 318 314 317 317 318 315 310 306 305 304 301 293 285 280 278 274 269 262
123 110 118 134 117 129 119 71 70 24 351 11 9 5 356 356 354 355 350 345 345 342 342 347 344 347 342 339 334 328 321 322 317 314 314 315 316 310 306 297 288 289 296 296 280 270 265 264 263
131 160 164 156 165 161 287 107 87 31 4 14 5 0 357 358 354 356 351 349 348 346 345 345 351 340 345 334 331 325 326 324 317 318 313 315 312 308 300 294 291 283 279 286 293 284 275 266 262
193 310 165 154 204 161 242 136 136 49 21 15 3 1 359 353 355 358 356 352 350 348 344 348 346 345 341 336 331 331 331 330 325 322 322 322 311 301 297 295 286 288 276 269 276 278 283 273 261
325 261 108 134 153 212 201 138 149 72 24 15 2 0 356 352 357 358 355 353 350 351 349 349 350 345 343 338 339 336 335 331 325 321 320 322 318 311 298 293 289 281 273 260 257 266 276 281 279
306 179 111 110 132 200 218 170 159 81 13 6 2 359 353 353 355 357 354 352 352 353 354 353 350 351 349 344 342 337 336 333 330 328 328 327 314 317 313 301 296 294 271 264 254 256 261 268 275
164 152 84 104 129 250 174 191 192 259 8 4 0 355 352 349 354 355 354 353 357 353 356 352 352 351 354 342 337 330 331 330 324 334 326 324 329 325 317 313 299 294 286 273 263 245 243 250 258
80 359 142 331 144 94 184 211 220 209 265 360 4 357 353 354 348 351 353 352 357 358 355 355 354 353 345 341 329 335 330 326 334 332 322 325 331 325 318 316 304 294 285 276 270 256 229 235 244
204 29 275 203 204 331 212 336 188 297 288 4 357 358 354 354 352 351 352 353 359 357 353 354 356 350 344 345 338 341 332 325 328 324 316 320 331 327 324 319 310 300 295 282 275 261 232 213 232
31 355 152 182 180 215 173 258 109 269 335 1 348 356 357 354 353 351 352 351 358 356 355 351 351 351 352 350 345 342 340 331 336 332 333 336 328 327 325 327 318 304 296 292 294 254 230 204 219
51 129 113 159 215 239 128 280 149 71 348 340 339 351 352 352 354 352 352 351 357 359 356 351 353 356 347 348 347 345 340 338 337 343 341 336 331 331 329 327 321 323 308 306 307 273 227 209 226
232 239 251 223 226 359 151 244 20 136 2 342 338 344 347 352 353 352 353 354 358 358 355 354 353 354 351 346 349 345 344 343 342 343 343 333 332 333 330 332 329 323 315 306 302 272 235 229 240
27 348 6 296 325 325 175 249 79 151 353 350 347 341 349 352 353 353 356 355 350 357 354 354 353 352 354 349 350 348 348 346 343 345 333 328 333 329 331 330 331 332 323 307 304 277 255 242 227
53 39 3 283 280 274 231 147 161 204 311 358 354 351 355 353 353 353 3 358 348 355 355 353 352 352 353 351 351 350 349 349 347 344 336 339 336 332 332 337 329 324 318 317 296 301 268 259 261
15 112 230 92 339 302 255 289 38 196 345 350 354 350 353 351 352 354 360 358 355 351 351 352 353 352 354 354 353 349 352 353 350 346 346 347 345 343 341 338 328 323 321 309 302 290 271 298 213
148 143 69 67 324 301 309 76 93 126 1 334 341 347 351 353 353 353 352 353 1 355 354 350 353 355 357 355 353 354 353 351 350 356 351 348 350 351 349 346 337 323 309 299 300 306 322 257 249
14 12 302 273 194 96 293 287 150 141 13 325 341 347 347 352 353 352 353 350 358 359 352 351 354 355 355 353 352 356 355 349 348 359 359 353 355 358 358 354 352 348 0 3 325 323 343 341 316